Hourly Data Report for October 03, 2017

All times are specified in Local Standard Time (LST). Add 1 hour to adjust for Daylight Saving Time where and when it is observed.

FORT GOOD HOPE CS
NORTHWEST TERRITORIES

66°14'32.044" N
128°38'39.081" W
81.70 m
2201450
71491
ZGH

Download Data

Hourly Data (October 2017)
Hourly Data Report for October 3, 2017
Temp Definition
°C
Dew Point Temp Definition
°C
Rel Hum Definition
%
Wind Dir Definition
10's deg

Wind Spd Definition
km/h
Visibility Definition
km
Stn Press Definition
kPa
Hmdx Definition


Wind Chill Definition


Weather Definition


TIME
00:00 3.5 1.1 84 11 9   100.35     LegendNANA
01:00 3.3 1.7 89 9 10   100.31     LegendNANA
02:00 2.9 2.0 94 10 9   100.32     LegendNANA
03:00 2.7 2.1 96 13 7   100.31     LegendNANA
04:00 2.7 2.2 97 3 3   100.39     LegendNANA
05:00 2.2 1.7 97 7 6   100.43     LegendNANA
06:00 1.8 1.3 97 7 5   100.48     LegendNANA
07:00 1.6 1.2 97 10 4   100.50     LegendNANA
08:00 1.5 1.0 97 10 3   100.53     LegendNANA
09:00 1.4 1.0 97 10 3   100.59     LegendNANA
10:00 1.6 1.2 97 9 4   100.63     LegendNANA
11:00 2.6 2.1 97 6 2   100.64     LegendNANA
12:00 3.3 2.3 94 11 4   100.67     LegendNANA
13:00 4.1 2.9 92 9 4   100.71     LegendNANA
14:00 4.5 3.0 90 12 7   100.76     LegendNANA
15:00 4.8 3.3 90 11 10   100.76     LegendNANA
16:00 5.1 3.5 89 13 11   100.79     LegendNANA
17:00 5.3 3.3 87 13 8   100.79     LegendNANA
18:00 4.8 3.1 89 10 8   100.74     LegendNANA
19:00 3.7 2.5 92 12 8   100.76     LegendNANA
20:00 3.1 2.1 94 8 9   100.75     LegendNANA
21:00 2.5 1.7 94 10 9   100.72     LegendNANA
22:00 2.2 1.7 96 9 7   100.69     LegendNANA
23:00 2.2 1.7 96 9 8   100.70     LegendNANA

Notes on Data Quality.

Legend

  • E = Estimated
  • M = Missing
  • NA = Not Available
  • ‡ = Partner data that is not subject to review by the National Climate Archives
Date modified: